Regional Weather Roundup
Issued by NWS

Home | Current Version | Previous Version | Graphics & Text | Print | Product List | Glossary Off
Versions: 1 2 3 4 5 6 7 8 9 10 11 12 13 14 15 16 17 18 19 20 21 22 23 24 25 26 27 28 29 30 31 32 33 34 35 36 37 38 39 40 41 42 43 44 45 46 47 48 49 50

000
ASUS43 KLSX 292157
RWRMO

WEATHER SUMMARY FOR MISSOURI
NATIONAL WEATHER SERVICE SPRINGFIELD MO
500 PM CDT FRI APR 29 2016

NOTE: "FAIR" INDICATES FEW OR NO CLOUDS BELOW 12,000 FEET WITH NO
       SIGNIFICANT WEATHER AND/OR OBSTRUCTIONS TO VISIBILITY.
       CURRENT SKY AND/OR WEATHER CONDITIONS ARE NOT AVAILABLE FOR
       CHILLICOTHE AND FARMINGTON.

MOZ001>031-035>038-043-044-053-054-292300-
...NORTHERN AND WESTERN MISSOURI...

CITY           SKY/WX    TMP DP  RH WIND       PRES   REMARKS
KANSAS CTY INT LGT RAIN  53  50  89 E15       29.90F
LEE`S SUMMIT   LGT RAIN  55  49  80 NE16      29.89F
ST JOSEPH      LGT RAIN  54  47  77 NE12      29.96S
CHILLICOTHE      N/A     56  47  71 NE10      29.98S

$$
MOZ066>068-077>081-088>096-101>105-292300-
...SOUTHWEST MISSOURI...

CITY           SKY/WX    TMP DP  RH WIND       PRES   REMARKS
SPRINGFIELD    CLOUDY    63  55  75 E21G29    29.77F
JOPLIN         CLOUDY    63  56  78 SE17G30   29.74F
BRANSON        FOG       57  57 100 E15G21    29.81F VSB 1/2

$$
MOZ032>034-039>042-045>050-055>058-069>072-292300-
...CENTRAL MISSOURI...

CITY           SKY/WX    TMP DP  RH WIND       PRES   REMARKS
COLUMBIA       NOT AVBL
JEFFERSON CITY CLOUDY    64  50  60 E15G22    29.91F
ROLLA          CLOUDY    60  52  74 E15       29.91F
SEDALIA        CLOUDY    63  52  67 E12G22    29.89F
WARRENSBURG    CLOUDY    59  50  72 NE15      29.88F

$$
MOZ051-052-059>065-292300-
...EAST CENTRAL MISSOURI...

CITY           SKY/WX    TMP DP  RH WIND       PRES   REMARKS
ST LOUIS INTL  CLOUDY    64  50  60 E9        29.98F

$$
MOZ072>076-082>087-097>100-106>115-292300-
...SOUTH CENTRAL AND SOUTHEAST MISSOURI...

CITY           SKY/WX    TMP DP  RH WIND       PRES   REMARKS
CAPE GIRARDEAU CLOUDY    61  57  87 SE6       29.94S
POPLAR BLUFF   CLOUDY    62  58  86 E9        29.91F
WEST PLAINS    CLOUDY    59  55  87 E13       29.88F

$$


USA.gov is the U.S. government's official web portal to all federal, state and local government web resources and services.